Time,TemperatureF,DewpointF,PressureIn,WindDirection,WindDirectionDegrees,WindSpeedMPH,WindSpeedGustMPH,Humidity,HourlyPrecipIn,Conditions,Clouds,dailyrainin,SoftwareType,DateUTC
2013-07-17 00:00:00,80.6,73.1,30.24,West,267,1.0,5.0,78,0.00,,---,0.00,VWS V14.00,2013-07-17 04:00:00,
2013-07-17 00:02:00,80.5,73.0,30.23,West,266,0.0,5.0,78,0.00,,---,0.00,VWS V14.00,2013-07-17 04:02:00,
2013-07-17 00:07:00,80.4,72.9,30.24,West,267,4.0,5.0,78,0.00,,---,0.00,VWS V14.00,2013-07-17 04:07:00,
2013-07-17 00:12:00,80.3,73.2,30.24,West,266,4.0,5.0,79,0.00,,---,0.00,VWS V14.00,2013-07-17 04:12:00,
2013-07-17 00:17:00,80.1,73.0,30.24,West,267,1.0,5.0,79,0.00,,---,0.00,VWS V14.00,2013-07-17 04:17:00,
2013-07-17 00:22:00,79.9,72.8,30.24,West,267,2.0,5.0,79,0.00,,---,0.00,VWS V14.00,2013-07-17 04:22:00,
2013-07-17 00:27:00,79.6,72.9,30.24,West,259,2.0,3.0,80,0.00,,---,0.00,VWS V14.00,2013-07-17 04:27:00,
2013-07-17 00:30:00,79.6,72.9,30.24,WSW,258,2.0,5.0,80,0.00,,---,0.00,VWS V14.00,2013-07-17 04:30:00,
2013-07-17 00:32:00,79.3,73.0,30.24,West,262,1.0,5.0,81,0.00,,---,0.00,VWS V14.00,2013-07-17 04:32:00,
2013-07-17 00:37:00,79.1,72.8,30.24,West,261,0.0,6.0,81,0.00,,---,0.00,VWS V14.00,2013-07-17 04:37:00,
2013-07-17 00:42:00,79.1,72.8,30.24,WSW,258,1.0,6.0,81,0.00,,---,0.00,VWS V14.00,2013-07-17 04:42:00,
2013-07-17 00:47:00,79.1,72.8,30.24,West,259,2.0,6.0,81,0.00,,---,0.00,VWS V14.00,2013-07-17 04:47:00,
2013-07-17 00:52:00,78.9,72.6,30.24,WSW,257,2.0,6.0,81,0.00,,---,0.00,VWS V14.00,2013-07-17 04:52:00,
2013-07-17 00:57:00,78.8,72.8,30.24,WSW,254,3.0,4.0,82,0.00,,---,0.00,VWS V14.00,2013-07-17 04:57:00,
2013-07-17 01:00:00,78.8,72.5,30.24,WSW,254,4.0,7.0,81,0.00,,---,0.00,VWS V14.00,2013-07-17 05:00:00,
2013-07-17 01:02:00,78.6,72.7,30.24,WSW,253,2.0,7.0,82,0.00,,---,0.00,VWS V14.00,2013-07-17 05:02:00,
2013-07-17 01:07:00,78.4,72.4,30.24,West,266,3.0,7.0,82,0.00,,---,0.00,VWS V14.00,2013-07-17 05:07:00,
2013-07-17 01:12:00,78.3,72.7,30.24,West,263,2.0,7.0,83,0.00,,---,0.00,VWS V14.00,2013-07-17 05:12:00,
2013-07-17 01:17:00,78.2,72.6,30.24,West,261,4.0,7.0,83,0.00,,---,0.00,VWS V14.00,2013-07-17 05:17:00,
2013-07-17 01:22:00,78.1,72.5,30.24,West,265,5.0,7.0,83,0.00,,---,0.00,VWS V14.00,2013-07-17 05:22:00,
2013-07-17 01:27:00,78.1,72.5,30.24,West,264,3.0,4.0,83,0.00,,---,0.00,VWS V14.00,2013-07-17 05:27:00,
2013-07-17 01:30:00,78.1,72.5,30.24,West,265,1.0,7.0,83,0.00,,---,0.00,VWS V14.00,2013-07-17 05:30:00,
2013-07-17 01:32:00,78.2,72.6,30.24,West,264,4.0,6.0,83,0.00,,---,0.00,VWS V14.00,2013-07-17 05:32:00,
2013-07-17 01:37:00,78.2,72.6,30.24,West,263,0.0,6.0,83,0.00,,---,0.00,VWS V14.00,2013-07-17 05:37:00,
2013-07-17 01:42:00,78.1,72.5,30.24,West,263,2.0,6.0,83,0.00,,---,0.00,VWS V14.00,2013-07-17 05:42:00,
2013-07-17 01:47:00,78.0,72.4,30.24,West,263,1.0,6.0,83,0.00,,---,0.00,VWS V14.00,2013-07-17 05:47:00,
2013-07-17 01:52:00,77.8,72.2,30.24,West,263,2.0,6.0,83,0.00,,---,0.00,VWS V14.00,2013-07-17 05:52:00,
2013-07-17 01:57:00,77.6,72.4,30.23,WSW,237,2.0,4.0,84,0.00,,---,0.00,VWS V14.00,2013-07-17 05:57:00,
2013-07-17 02:00:00,77.6,72.4,30.23,SW,236,4.0,6.0,84,0.00,,---,0.00,VWS V14.00,2013-07-17 06:00:00,
2013-07-17 02:02:00,77.4,72.2,30.24,WSW,242,2.0,5.0,84,0.00,,---,0.00,VWS V14.00,2013-07-17 06:02:00,
2013-07-17 02:07:00,77.2,72.0,30.23,WSW,238,2.0,5.0,84,0.00,,---,0.00,VWS V14.00,2013-07-17 06:07:00,
2013-07-17 02:12:00,77.1,72.2,30.23,WSW,241,0.0,5.0,85,0.00,,---,0.00,VWS V14.00,2013-07-17 06:12:00,
2013-07-17 02:17:00,77.1,72.2,30.23,WSW,241,1.0,5.0,85,0.00,,---,0.00,VWS V14.00,2013-07-17 06:17:00,
2013-07-17 02:22:00,77.1,72.2,30.23,WSW,246,4.0,5.0,85,0.00,,---,0.00,VWS V14.00,2013-07-17 06:22:00,
2013-07-17 02:27:00,77.1,72.2,30.23,WSW,247,2.0,3.0,85,0.00,,---,0.00,VWS V14.00,2013-07-17 06:27:00,
2013-07-17 02:30:00,77.1,72.2,30.23,WSW,247,3.0,5.0,85,0.00,,---,0.00,VWS V14.00,2013-07-17 06:30:00,
2013-07-17 02:33:00,77.1,72.2,30.23,WSW,248,3.0,5.0,85,0.00,,---,0.00,VWS V14.00,2013-07-17 06:33:00,
2013-07-17 02:38:00,77.2,72.0,30.23,WSW,248,1.0,5.0,84,0.00,,---,0.00,VWS V14.00,2013-07-17 06:38:00,
2013-07-17 02:43:00,77.3,72.1,30.23,WSW,248,3.0,5.0,84,0.00,,---,0.00,VWS V14.00,2013-07-17 06:43:00,
2013-07-17 02:48:00,77.3,72.1,30.23,WSW,248,1.0,5.0,84,0.00,,---,0.00,VWS V14.00,2013-07-17 06:48:00,
2013-07-17 02:53:00,77.2,72.0,30.23,WSW,248,4.0,5.0,84,0.00,,---,0.00,VWS V14.00,2013-07-17 06:53:00,
2013-07-17 02:58:00,77.3,72.1,30.23,West,259,3.0,3.0,84,0.00,,---,0.00,VWS V14.00,2013-07-17 06:58:00,
2013-07-17 03:00:00,77.3,72.1,30.23,West,259,4.0,6.0,84,0.00,,---,0.00,VWS V14.00,2013-07-17 07:00:00,
2013-07-17 03:03:00,77.2,72.0,30.23,West,259,4.0,4.0,84,0.00,,---,0.00,VWS V14.00,2013-07-17 07:03:00,
2013-07-17 03:08:00,77.3,72.1,30.23,WSW,258,4.0,7.0,84,0.00,,---,0.00,VWS V14.00,2013-07-17 07:08:00,
2013-07-17 03:13:00,77.3,72.1,30.23,West,259,2.0,7.0,84,0.00,,---,0.00,VWS V14.00,2013-07-17 07:13:00,
2013-07-17 03:18:00,77.2,72.0,30.23,West,259,3.0,7.0,84,0.00,,---,0.00,VWS V14.00,2013-07-17 07:18:00,
2013-07-17 03:23:00,77.0,72.2,30.23,West,259,2.0,7.0,85,0.00,,---,0.00,VWS V14.00,2013-07-17 07:23:00,
2013-07-17 03:28:00,76.9,72.1,30.23,West,259,2.0,4.0,85,0.00,,---,0.00,VWS V14.00,2013-07-17 07:28:00,
2013-07-17 03:30:00,76.9,72.1,30.23,West,259,3.0,7.0,85,0.00,,---,0.00,VWS V14.00,2013-07-17 07:30:00,
2013-07-17 03:33:00,76.6,71.8,30.23,WSW,257,2.0,4.0,85,0.00,,---,0.00,VWS V14.00,2013-07-17 07:33:00,
2013-07-17 03:38:00,76.5,71.7,30.23,WSW,258,0.0,4.0,85,0.00,,---,0.00,VWS V14.00,2013-07-17 07:38:00,
2013-07-17 03:43:00,76.5,72.0,30.23,WSW,257,0.0,4.0,86,0.00,,---,0.00,VWS V14.00,2013-07-17 07:43:00,
2013-07-17 03:48:00,76.4,71.9,30.23,WSW,258,1.0,4.0,86,0.00,,---,0.00,VWS V14.00,2013-07-17 07:48:00,
2013-07-17 03:53:00,76.2,71.7,30.23,WSW,258,0.0,4.0,86,0.00,,---,0.00,VWS V14.00,2013-07-17 07:53:00,
2013-07-17 03:58:00,76.0,71.5,30.23,WSW,258,0.0,0.0,86,0.00,,---,0.00,VWS V14.00,2013-07-17 07:58:00,
2013-07-17 04:00:00,76.1,71.6,30.23,WSW,258,0.0,4.0,86,0.00,,---,0.00,VWS V14.00,2013-07-17 08:00:00,
2013-07-17 04:03:00,75.8,71.7,30.23,WSW,258,0.0,1.0,87,0.00,,---,0.00,VWS V14.00,2013-07-17 08:03:00,
2013-07-17 04:08:00,75.7,71.6,30.23,WSW,258,0.0,1.0,87,0.00,,---,0.00,VWS V14.00,2013-07-17 08:08:00,
2013-07-17 04:13:00,75.5,71.4,30.23,WSW,258,0.0,1.0,87,0.00,,---,0.00,VWS V14.00,2013-07-17 08:13:00,
2013-07-17 04:18:00,75.3,71.2,30.23,WSW,257,0.0,1.0,87,0.00,,---,0.00,VWS V14.00,2013-07-17 08:18:00,
2013-07-17 04:23:00,75.1,71.3,30.23,WSW,258,0.0,1.0,88,0.00,,---,0.00,VWS V14.00,2013-07-17 08:23:00,
2013-07-17 04:28:00,74.9,71.1,30.23,WSW,258,0.0,1.0,88,0.00,,---,0.00,VWS V14.00,2013-07-17 08:28:00,
2013-07-17 04:30:00,75.0,71.2,30.23,WSW,258,0.0,1.0,88,0.00,,---,0.00,VWS V14.00,2013-07-17 08:30:00,
2013-07-17 04:33:00,74.8,71.0,30.23,WSW,258,0.0,2.0,88,0.00,,---,0.00,VWS V14.00,2013-07-17 08:33:00,
2013-07-17 04:38:00,74.7,70.9,30.23,WSW,258,0.0,2.0,88,0.00,,---,0.00,VWS V14.00,2013-07-17 08:38:00,
2013-07-17 04:43:00,74.5,71.1,30.24,WSW,258,0.0,2.0,89,0.00,,---,0.00,VWS V14.00,2013-07-17 08:43:00,
2013-07-17 04:48:00,74.4,70.9,30.24,WSW,258,0.0,2.0,89,0.00,,---,0.00,VWS V14.00,2013-07-17 08:48:00,
2013-07-17 04:53:00,74.3,70.8,30.24,WSW,258,0.0,2.0,89,0.00,,---,0.00,VWS V14.00,2013-07-17 08:53:00,
2013-07-17 04:58:00,74.2,71.1,30.24,WSW,258,0.0,0.0,90,0.00,,---,0.00,VWS V14.00,2013-07-17 08:58:00,
2013-07-17 05:00:00,74.2,71.1,30.24,WSW,258,0.0,2.0,90,0.00,,---,0.00,VWS V14.00,2013-07-17 09:00:00,
2013-07-17 05:03:00,74.1,71.0,30.24,WSW,257,0.0,0.0,90,0.00,,---,0.00,VWS V14.00,2013-07-17 09:03:00,
2013-07-17 05:08:00,74.0,70.9,30.24,WSW,257,0.0,1.0,90,0.00,,---,0.00,VWS V14.00,2013-07-17 09:08:00,
2013-07-17 05:13:00,74.0,70.9,30.24,WSW,257,0.0,1.0,90,0.00,,---,0.00,VWS V14.00,2013-07-17 09:13:00,
2013-07-17 05:18:00,74.0,70.9,30.24,WSW,258,0.0,1.0,90,0.00,,---,0.00,VWS V14.00,2013-07-17 09:18:00,
2013-07-17 05:23:00,74.0,70.9,30.24,WSW,257,0.0,1.0,90,0.00,,---,0.00,VWS V14.00,2013-07-17 09:23:00,
2013-07-17 05:28:00,73.9,70.8,30.24,WSW,257,0.0,0.0,90,0.00,,---,0.00,VWS V14.00,2013-07-17 09:28:00,
2013-07-17 05:30:00,73.9,70.8,30.24,WSW,258,0.0,1.0,90,0.00,,---,0.00,VWS V14.00,2013-07-17 09:30:00,
2013-07-17 05:33:00,73.9,70.8,30.24,WSW,258,0.0,1.0,90,0.00,,---,0.00,VWS V14.00,2013-07-17 09:33:00,
2013-07-17 05:38:00,73.8,70.7,30.24,WSW,258,0.0,2.0,90,0.00,,---,0.00,VWS V14.00,2013-07-17 09:38:00,
2013-07-17 05:43:00,73.8,70.7,30.24,WSW,258,0.0,2.0,90,0.00,,---,0.00,VWS V14.00,2013-07-17 09:43:00,
2013-07-17 05:48:00,73.7,70.6,30.24,WSW,258,0.0,2.0,90,0.00,,---,0.00,VWS V14.00,2013-07-17 09:48:00,
2013-07-17 05:53:00,73.6,70.5,30.24,WSW,258,0.0,2.0,90,0.00,,---,0.00,VWS V14.00,2013-07-17 09:53:00,
2013-07-17 05:58:00,73.5,70.4,30.24,WSW,258,0.0,1.0,90,0.00,,---,0.00,VWS V14.00,2013-07-17 09:58:00,
2013-07-17 06:00:00,73.5,70.4,30.24,WSW,257,0.0,2.0,90,0.00,,---,0.00,VWS V14.00,2013-07-17 10:00:00,
2013-07-17 06:03:00,73.5,70.7,30.24,WSW,258,3.0,4.0,91,0.00,,---,0.00,VWS V14.00,2013-07-17 10:03:00,
2013-07-17 06:08:00,73.5,70.7,30.24,SW,228,1.0,5.0,91,0.00,,---,0.00,VWS V14.00,2013-07-17 10:08:00,
2013-07-17 06:13:00,73.4,70.6,30.25,SW,228,1.0,5.0,91,0.00,,---,0.00,VWS V14.00,2013-07-17 10:13:00,
2013-07-17 06:18:00,73.4,70.6,30.25,SW,228,2.0,5.0,91,0.00,,---,0.00,VWS V14.00,2013-07-17 10:18:00,
2013-07-17 06:23:00,73.4,70.6,30.25,SW,228,1.0,5.0,91,0.00,,---,0.00,VWS V14.00,2013-07-17 10:23:00,
2013-07-17 06:28:00,73.4,70.3,30.25,SW,229,0.0,1.0,90,0.00,,---,0.00,VWS V14.00,2013-07-17 10:28:00,
2013-07-17 06:30:00,73.4,70.3,30.25,SW,228,0.0,5.0,90,0.00,,---,0.00,VWS V14.00,2013-07-17 10:30:00,
2013-07-17 06:33:00,73.3,70.5,30.25,SW,228,0.0,3.0,91,0.00,,---,0.00,VWS V14.00,2013-07-17 10:33:00,
2013-07-17 06:38:00,73.3,70.5,30.25,SW,229,1.0,3.0,91,0.00,,---,0.00,VWS V14.00,2013-07-17 10:38:00,
2013-07-17 06:43:00,73.3,70.5,30.25,SW,228,1.0,4.0,91,0.00,,---,0.00,VWS V14.00,2013-07-17 10:43:00,
2013-07-17 06:48:00,73.3,70.5,30.25,SW,228,0.0,4.0,91,0.00,,---,0.00,VWS V14.00,2013-07-17 10:48:00,
2013-07-17 06:53:00,73.4,70.6,30.25,SW,229,1.0,4.0,91,0.00,,---,0.00,VWS V14.00,2013-07-17 10:53:00,
2013-07-17 06:58:00,73.5,70.7,30.25,SW,229,3.0,4.0,91,0.00,,---,0.00,VWS V14.00,2013-07-17 10:58:00,
2013-07-17 07:00:00,73.5,70.7,30.25,SW,229,0.0,4.0,91,0.00,,---,0.00,VWS V14.00,2013-07-17 11:00:00,
2013-07-17 07:03:00,73.7,70.9,30.25,SW,228,0.0,4.0,91,0.00,,---,0.00,VWS V14.00,2013-07-17 11:03:00,
2013-07-17 07:08:00,73.8,70.7,30.25,SW,229,1.0,4.0,90,0.00,,---,0.00,VWS V14.00,2013-07-17 11:08:00,
2013-07-17 07:13:00,73.9,70.8,30.25,SW,228,0.0,4.0,90,0.00,,---,0.00,VWS V14.00,2013-07-17 11:13:00,
2013-07-17 07:18:00,74.0,70.9,30.25,SW,229,1.0,4.0,90,0.00,,---,0.00,VWS V14.00,2013-07-17 11:18:00,
2013-07-17 07:23:00,74.1,71.0,30.25,SW,228,0.0,4.0,90,0.00,,---,0.00,VWS V14.00,2013-07-17 11:23:00,
2013-07-17 07:28:00,74.3,71.2,30.25,SW,228,2.0,4.0,90,0.00,,---,0.00,VWS V14.00,2013-07-17 11:28:00,
2013-07-17 07:30:00,74.2,71.1,30.25,SW,229,1.0,4.0,90,0.00,,---,0.00,VWS V14.00,2013-07-17 11:30:00,
2013-07-17 07:33:00,74.7,71.6,30.25,SW,229,2.0,4.0,90,0.00,,---,0.00,VWS V14.00,2013-07-17 11:33:00,
2013-07-17 07:38:00,75.1,71.6,30.25,SW,227,5.0,5.0,89,0.00,,---,0.00,VWS V14.00,2013-07-17 11:38:00,
2013-07-17 07:43:00,75.5,72.0,30.25,WSW,243,3.0,5.0,89,0.00,,---,0.00,VWS V14.00,2013-07-17 11:43:00,
2013-07-17 07:48:00,75.8,72.0,30.25,WSW,242,3.0,5.0,88,0.00,,---,0.00,VWS V14.00,2013-07-17 11:48:00,
2013-07-17 07:53:00,76.1,72.3,30.25,WSW,244,2.0,5.0,88,0.00,,---,0.00,VWS V14.00,2013-07-17 11:53:00,
2013-07-17 07:58:00,76.5,72.3,30.26,WSW,245,3.0,3.0,87,0.00,,---,0.00,VWS V14.00,2013-07-17 11:58:00,
2013-07-17 08:00:00,76.4,72.6,30.25,WSW,246,1.0,5.0,88,0.00,,---,0.00,VWS V14.00,2013-07-17 12:00:00,
2013-07-17 08:03:00,76.9,72.4,30.26,West,266,0.0,7.0,86,0.00,,---,0.00,VWS V14.00,2013-07-17 12:03:00,
2013-07-17 08:08:00,77.4,72.9,30.26,West,264,2.0,7.0,86,0.00,,---,0.00,VWS V14.00,2013-07-17 12:08:00,
2013-07-17 08:13:00,77.9,73.0,30.26,West,261,1.0,7.0,85,0.00,,---,0.00,VWS V14.00,2013-07-17 12:13:00,
2013-07-17 08:18:00,78.2,73.0,30.26,West,261,2.0,7.0,84,0.00,,---,0.00,VWS V14.00,2013-07-17 12:18:00,
2013-07-17 08:23:00,78.6,73.0,30.26,WSW,250,2.0,7.0,83,0.00,,---,0.00,VWS V14.00,2013-07-17 12:23:00,
2013-07-17 08:28:00,78.9,73.3,30.26,WSW,252,1.0,3.0,83,0.00,,---,0.00,VWS V14.00,2013-07-17 12:28:00,
2013-07-17 08:30:00,78.8,73.2,30.26,WSW,252,0.0,7.0,83,0.00,,---,0.00,VWS V14.00,2013-07-17 12:30:00,
2013-07-17 08:33:00,79.3,73.7,30.26,WSW,242,2.0,5.0,83,0.00,,---,0.00,VWS V14.00,2013-07-17 12:33:00,
2013-07-17 08:38:00,79.5,73.9,30.26,WSW,240,3.0,7.0,83,0.00,,---,0.00,VWS V14.00,2013-07-17 12:38:00,
2013-07-17 08:43:00,79.9,74.3,30.25,West,259,2.0,7.0,83,0.00,,---,0.00,VWS V14.00,2013-07-17 12:43:00,
2013-07-17 08:48:00,80.3,74.3,30.26,West,271,3.0,7.0,82,0.00,,---,0.00,VWS V14.00,2013-07-17 12:48:00,
2013-07-17 08:53:00,80.8,74.4,30.25,West,271,4.0,7.0,81,0.00,,---,0.00,VWS V14.00,2013-07-17 12:53:00,
2013-07-17 08:58:00,81.3,74.9,30.25,West,260,4.0,5.0,81,0.00,,---,0.00,VWS V14.00,2013-07-17 12:58:00,
2013-07-17 09:00:00,81.1,74.7,30.25,West,266,0.0,7.0,81,0.00,,---,0.00,VWS V14.00,2013-07-17 13:00:00,
2013-07-17 09:03:00,81.6,74.8,30.25,West,261,3.0,6.0,80,0.00,,---,0.00,VWS V14.00,2013-07-17 13:03:00,
2013-07-17 09:09:00,82.1,74.9,30.25,West,260,6.0,6.0,79,0.00,,---,0.00,VWS V14.00,2013-07-17 13:09:00,
2013-07-17 09:14:00,82.5,75.3,30.25,West,270,1.0,7.0,79,0.00,,---,0.00,VWS V14.00,2013-07-17 13:14:00,
2013-07-17 09:19:00,82.9,75.3,30.25,WNW,287,4.0,7.0,78,0.00,,---,0.00,VWS V14.00,2013-07-17 13:19:00,
2013-07-17 09:24:00,83.2,75.2,30.25,West,281,3.0,7.0,77,0.00,,---,0.00,VWS V14.00,2013-07-17 13:24:00,
2013-07-17 09:29:00,83.7,75.7,30.25,West,272,4.0,5.0,77,0.00,,---,0.00,VWS V14.00,2013-07-17 13:29:00,
2013-07-17 09:30:00,83.5,75.5,30.25,West,281,2.0,7.0,77,0.00,,---,0.00,VWS V14.00,2013-07-17 13:30:00,
2013-07-17 09:34:00,84.1,75.7,30.25,West,261,2.0,6.0,76,0.00,,---,0.00,VWS V14.00,2013-07-17 13:34:00,
2013-07-17 09:39:00,84.3,75.5,30.25,West,275,5.0,7.0,75,0.00,,---,0.00,VWS V14.00,2013-07-17 13:39:00,
2013-07-17 09:44:00,84.6,75.8,30.25,West,271,2.0,7.0,75,0.00,,---,0.00,VWS V14.00,2013-07-17 13:44:00,
2013-07-17 09:49:00,85.0,75.8,30.25,West,265,6.0,7.0,74,0.00,,---,0.00,VWS V14.00,2013-07-17 13:49:00,
2013-07-17 09:54:00,85.4,75.8,30.25,West,259,6.0,8.0,73,0.00,,---,0.00,VWS V14.00,2013-07-17 13:54:00,
2013-07-17 09:59:00,85.4,76.2,30.25,NW,306,1.0,5.0,74,0.00,,---,0.00,VWS V14.00,2013-07-17 13:59:00,
2013-07-17 10:00:00,85.3,76.1,30.25,WNW,290,6.0,9.0,74,0.00,,---,0.00,VWS V14.00,2013-07-17 14:00:00,
2013-07-17 10:04:00,86.0,75.9,30.25,West,275,4.0,8.0,72,0.00,,---,0.00,VWS V14.00,2013-07-17 14:04:00,
2013-07-17 10:09:00,86.3,76.2,30.25,West,275,5.0,8.0,72,0.00,,---,0.00,VWS V14.00,2013-07-17 14:09:00,
2013-07-17 10:14:00,86.6,76.5,30.25,WSW,255,6.0,8.0,72,0.00,,---,0.00,VWS V14.00,2013-07-17 14:14:00,
2013-07-17 10:19:00,86.5,76.0,30.25,West,281,2.0,9.0,71,0.00,,---,0.00,VWS V14.00,2013-07-17 14:19:00,
2013-07-17 10:24:00,86.5,76.0,30.25,WNW,284,2.0,9.0,71,0.00,,---,0.00,VWS V14.00,2013-07-17 14:24:00,
2013-07-17 10:29:00,86.7,76.2,30.25,WNW,289,6.0,7.0,71,0.00,,---,0.00,VWS V14.00,2013-07-17 14:29:00,
2013-07-17 10:30:00,86.7,76.2,30.25,WSW,258,4.0,9.0,71,0.00,,---,0.00,VWS V14.00,2013-07-17 14:30:00,
2013-07-17 10:34:00,87.1,76.6,30.25,West,280,5.0,7.0,71,0.00,,---,0.00,VWS V14.00,2013-07-17 14:34:00,
2013-07-17 10:39:00,87.5,76.5,30.24,West,270,2.0,8.0,70,0.00,,---,0.00,VWS V14.00,2013-07-17 14:39:00,
2013-07-17 10:44:00,87.8,76.8,30.24,SSW,208,5.0,8.0,70,0.00,,---,0.00,VWS V14.00,2013-07-17 14:44:00,
2013-07-17 10:49:00,88.0,77.0,30.24,SW,215,6.0,8.0,70,0.00,,---,0.00,VWS V14.00,2013-07-17 14:49:00,
2013-07-17 10:54:00,88.2,76.8,30.24,WSW,247,4.0,8.0,69,0.00,,---,0.00,VWS V14.00,2013-07-17 14:54:00,
2013-07-17 10:59:00,88.4,76.9,30.24,West,261,6.0,7.0,69,0.00,,---,0.00,VWS V14.00,2013-07-17 14:59:00,
2013-07-17 11:00:00,88.3,76.4,30.24,SW,218,2.0,8.0,68,0.00,,---,0.00,VWS V14.00,2013-07-17 15:00:00,
2013-07-17 11:04:00,88.5,76.2,30.24,West,259,5.0,8.0,67,0.00,,---,0.00,VWS V14.00,2013-07-17 15:04:00,
2013-07-17 11:09:00,88.8,76.0,30.24,West,263,6.0,10.0,66,0.00,,---,0.00,VWS V14.00,2013-07-17 15:09:00,
2013-07-17 11:14:00,89.0,76.2,30.24,SW,232,2.0,10.0,66,0.00,,---,0.00,VWS V14.00,2013-07-17 15:14:00,
2013-07-17 11:19:00,89.0,76.2,30.24,SW,229,3.0,10.0,66,0.00,,---,0.00,VWS V14.00,2013-07-17 15:19:00,
2013-07-17 11:24:00,89.3,76.5,30.23,SW,216,5.0,10.0,66,0.00,,---,0.00,VWS V14.00,2013-07-17 15:24:00,
2013-07-17 11:29:00,89.6,76.3,30.23,WSW,254,1.0,10.0,65,0.00,,---,0.00,VWS V14.00,2013-07-17 15:29:00,
2013-07-17 11:30:00,89.6,76.3,30.23,WSW,244,10.0,10.0,65,0.00,,---,0.00,VWS V14.00,2013-07-17 15:30:00,
2013-07-17 11:34:00,89.9,76.6,30.23,SW,226,3.0,10.0,65,0.00,,---,0.00,VWS V14.00,2013-07-17 15:34:00,
2013-07-17 11:39:00,90.1,76.8,30.23,WNW,288,3.0,10.0,65,0.00,,---,0.00,VWS V14.00,2013-07-17 15:39:00,
2013-07-17 11:44:00,90.6,76.8,30.23,NW,317,2.0,10.0,64,0.00,,---,0.00,VWS V14.00,2013-07-17 15:44:00,
2013-07-17 11:49:00,91.2,76.8,30.23,WNW,300,3.0,10.0,63,0.00,,---,0.00,VWS V14.00,2013-07-17 15:49:00,
2013-07-17 11:54:00,91.4,76.1,30.23,West,279,4.0,10.0,61,0.00,,---,0.00,VWS V14.00,2013-07-17 15:54:00,
2013-07-17 11:59:00,91.0,76.2,30.23,WSW,256,4.0,11.0,62,0.00,,---,0.00,VWS V14.00,2013-07-17 15:59:00,
2013-07-17 12:00:00,91.2,76.8,30.23,WSW,246,5.0,10.0,63,0.00,,---,0.00,VWS V14.00,2013-07-17 16:00:00,
2013-07-17 12:04:00,91.2,76.8,30.23,West,276,0.0,11.0,63,0.00,,---,0.00,VWS V14.00,2013-07-17 16:04:00,
2013-07-17 12:09:00,91.2,76.4,30.23,West,269,7.0,11.0,62,0.00,,---,0.00,VWS V14.00,2013-07-17 16:09:00,
2013-07-17 12:14:00,91.0,75.7,30.23,WSW,248,3.0,12.0,61,0.00,,---,0.00,VWS V14.00,2013-07-17 16:14:00,
2013-07-17 12:19:00,91.3,76.5,30.23,WNW,298,4.0,12.0,62,0.00,,---,0.00,VWS V14.00,2013-07-17 16:19:00,
2013-07-17 12:24:00,91.3,75.5,30.23,NNE,17,3.0,12.0,60,0.00,,---,0.00,VWS V14.00,2013-07-17 16:24:00,
2013-07-17 12:30:00,91.6,75.8,30.23,West,261,8.0,12.0,60,0.00,,---,0.00,VWS V14.00,2013-07-17 16:30:00,
2013-07-17 12:34:00,91.9,75.5,30.23,West,262,12.0,12.0,59,0.00,,---,0.00,VWS V14.00,2013-07-17 16:34:00,
2013-07-17 12:39:00,92.3,75.9,30.23,West,273,3.0,12.0,59,0.00,,---,0.00,VWS V14.00,2013-07-17 16:39:00,
2013-07-17 12:44:00,92.2,75.3,30.23,West,268,5.0,12.0,58,0.00,,---,0.00,VWS V14.00,2013-07-17 16:44:00,
2013-07-17 12:49:00,91.8,74.9,30.23,WSW,251,4.0,12.0,58,0.00,,---,0.00,VWS V14.00,2013-07-17 16:49:00,
2013-07-17 12:54:00,91.7,75.8,30.23,West,264,6.0,12.0,60,0.00,,---,0.00,VWS V14.00,2013-07-17 16:54:00,
2013-07-17 12:59:00,91.9,75.0,30.23,WSW,249,4.0,8.0,58,0.00,,---,0.00,VWS V14.00,2013-07-17 16:59:00,
2013-07-17 13:00:00,91.5,75.7,30.23,West,262,6.0,12.0,60,0.00,,---,0.00,VWS V14.00,2013-07-17 17:00:00,
2013-07-17 13:04:00,92.9,75.9,30.22,West,269,2.0,8.0,58,0.00,,---,0.00,VWS V14.00,2013-07-17 17:04:00,
2013-07-17 13:09:00,92.8,75.3,30.22,West,270,2.0,12.0,57,0.00,,---,0.00,VWS V14.00,2013-07-17 17:09:00,
2013-07-17 13:14:00,92.8,75.3,30.22,West,267,5.0,12.0,57,0.00,,---,0.00,VWS V14.00,2013-07-17 17:14:00,
2013-07-17 13:19:00,91.9,75.0,30.22,West,275,4.0,12.0,58,0.00,,---,0.00,VWS V14.00,2013-07-17 17:19:00,
2013-07-17 13:24:00,91.7,74.8,30.22,WSW,254,7.0,12.0,58,0.00,,---,0.00,VWS V14.00,2013-07-17 17:24:00,
2013-07-17 13:29:00,92.3,75.4,30.22,SW,236,3.0,6.0,58,0.00,,---,0.00,VWS V14.00,2013-07-17 17:29:00,
2013-07-17 13:30:00,92.0,75.1,30.22,West,273,4.0,12.0,58,0.00,,---,0.00,VWS V14.00,2013-07-17 17:30:00,
2013-07-17 13:34:00,92.6,75.7,30.22,West,263,2.0,8.0,58,0.00,,---,0.00,VWS V14.00,2013-07-17 17:34:00,
2013-07-17 13:39:00,93.0,75.0,30.22,NW,325,3.0,11.0,56,0.00,,---,0.00,VWS V14.00,2013-07-17 17:39:00,
2013-07-17 13:44:00,92.3,74.3,30.21,WSW,258,2.0,11.0,56,0.00,,---,0.00,VWS V14.00,2013-07-17 17:44:00,
2013-07-17 13:49:00,92.5,75.6,30.21,SW,233,6.0,11.0,58,0.00,,---,0.00,VWS V14.00,2013-07-17 17:49:00,
2013-07-17 13:54:00,92.5,75.6,30.21,West,269,8.0,11.0,58,0.00,,---,0.00,VWS V14.00,2013-07-17 17:54:00,
2013-07-17 13:59:00,93.2,75.7,30.21,West,259,8.0,9.0,57,0.00,,---,0.00,VWS V14.00,2013-07-17 17:59:00,
2013-07-17 14:00:00,92.7,75.8,30.21,West,278,5.0,11.0,58,0.00,,---,0.00,VWS V14.00,2013-07-17 18:00:00,
2013-07-17 14:04:00,93.3,75.3,30.20,WSW,257,8.0,10.0,56,0.00,,---,0.00,VWS V14.00,2013-07-17 18:04:00,
2013-07-17 14:09:00,93.3,75.8,30.20,NNW,328,1.0,11.0,57,0.00,,---,0.00,VWS V14.00,2013-07-17 18:09:00,
2013-07-17 14:14:00,93.8,75.7,30.20,West,269,4.0,11.0,56,0.00,,---,0.00,VWS V14.00,2013-07-17 18:14:00,
2013-07-17 14:19:00,93.9,75.3,30.20,SW,233,5.0,11.0,55,0.00,,---,0.00,VWS V14.00,2013-07-17 18:19:00,
2013-07-17 14:24:00,94.0,74.8,30.20,North,360,1.0,11.0,54,0.00,,---,0.00,VWS V14.00,2013-07-17 18:24:00,
2013-07-17 14:29:00,94.0,74.8,30.19,SSW,211,5.0,11.0,54,0.00,,---,0.00,VWS V14.00,2013-07-17 18:29:00,
2013-07-17 14:30:00,94.3,74.6,30.20,WSW,256,8.0,13.0,53,0.00,,---,0.00,VWS V14.00,2013-07-17 18:30:00,
2013-07-17 14:34:00,94.0,75.4,30.19,SW,215,7.0,12.0,55,0.00,,---,0.00,VWS V14.00,2013-07-17 18:34:00,
2013-07-17 14:39:00,93.8,75.2,30.19,SW,223,3.0,12.0,55,0.00,,---,0.00,VWS V14.00,2013-07-17 18:39:00,
2013-07-17 14:45:00,93.5,75.5,30.19,West,275,3.0,12.0,56,0.00,,---,0.00,VWS V14.00,2013-07-17 18:45:00,
2013-07-17 14:50:00,93.6,74.5,30.19,SW,233,3.0,12.0,54,0.00,,---,0.00,VWS V14.00,2013-07-17 18:50:00,
2013-07-17 14:55:00,94.0,74.8,30.19,West,266,6.0,12.0,54,0.00,,---,0.00,VWS V14.00,2013-07-17 18:55:00,
2013-07-17 15:00:00,94.1,73.8,30.19,West,260,5.0,12.0,52,0.00,,---,0.00,VWS V14.00,2013-07-17 19:00:00,
2013-07-17 15:05:00,94.5,74.7,30.19,WNW,303,4.0,12.0,53,0.00,,---,0.00,VWS V14.00,2013-07-17 19:05:00,
2013-07-17 15:10:00,95.1,74.7,30.19,NNW,340,5.0,12.0,52,0.00,,---,0.00,VWS V14.00,2013-07-17 19:10:00,
2013-07-17 15:15:00,93.6,75.0,30.19,NNW,348,3.0,12.0,55,0.00,,---,0.00,VWS V14.00,2013-07-17 19:15:00,
2013-07-17 15:20:00,92.6,75.7,30.18,NNW,338,5.0,12.0,58,0.00,,---,0.00,VWS V14.00,2013-07-17 19:20:00,
2013-07-17 15:25:00,92.9,75.9,30.18,WNW,296,0.0,12.0,58,0.00,,---,0.00,VWS V14.00,2013-07-17 19:25:00,
2013-07-17 15:30:00,92.8,75.3,30.18,North,9,5.0,8.0,57,0.00,,---,0.00,VWS V14.00,2013-07-17 19:30:00,
2013-07-17 15:35:00,91.5,75.2,30.18,NNE,17,1.0,8.0,59,0.00,,---,0.00,VWS V14.00,2013-07-17 19:35:00,
2013-07-17 15:40:00,91.4,75.6,30.18,NNE,26,1.0,8.0,60,0.00,,---,0.00,VWS V14.00,2013-07-17 19:40:00,
2013-07-17 15:45:00,91.8,75.9,30.17,NE,38,3.0,8.0,60,0.00,,---,0.00,VWS V14.00,2013-07-17 19:45:00,
2013-07-17 15:50:00,92.7,75.8,30.17,NE,49,0.0,8.0,58,0.00,,---,0.00,VWS V14.00,2013-07-17 19:50:00,
2013-07-17 15:55:00,93.2,75.7,30.17,NNE,17,5.0,8.0,57,0.00,,---,0.00,VWS V14.00,2013-07-17 19:55:00,
2013-07-17 16:00:00,92.9,75.4,30.17,NNE,15,1.0,2.0,57,0.00,,---,0.00,VWS V14.00,2013-07-17 20:00:00,
2013-07-17 16:05:00,92.7,75.8,30.17,North,5,0.0,5.0,58,0.00,,---,0.00,VWS V14.00,2013-07-17 20:05:00,
2013-07-17 16:10:00,93.0,76.1,30.17,North,349,1.0,5.0,58,0.00,,---,0.00,VWS V14.00,2013-07-17 20:10:00,
2013-07-17 16:15:00,93.0,75.5,30.16,North,349,0.0,5.0,57,0.00,,---,0.00,VWS V14.00,2013-07-17 20:15:00,
2013-07-17 16:20:00,92.6,75.2,30.16,NNW,348,0.0,5.0,57,0.00,,---,0.00,VWS V14.00,2013-07-17 20:20:00,
2013-07-17 16:25:00,92.2,75.8,30.16,North,350,3.0,5.0,59,0.00,,---,0.00,VWS V14.00,2013-07-17 20:25:00,
2013-07-17 16:30:00,91.4,76.1,30.16,WNW,295,3.0,7.0,61,0.00,,---,0.00,VWS V14.00,2013-07-17 20:30:00,
2013-07-17 16:35:00,91.4,77.5,30.16,West,267,2.0,7.0,64,0.00,,---,0.00,VWS V14.00,2013-07-17 20:35:00,
2013-07-17 16:40:00,92.2,77.8,30.16,West,261,12.0,12.0,63,0.00,,---,0.00,VWS V14.00,2013-07-17 20:40:00,
2013-07-17 16:45:00,92.9,76.5,30.16,WSW,255,4.0,13.0,59,0.00,,---,0.00,VWS V14.00,2013-07-17 20:45:00,
2013-07-17 16:50:00,92.4,77.0,30.16,NNW,331,3.0,13.0,61,0.00,,---,0.00,VWS V14.00,2013-07-17 20:50:00,
2013-07-17 16:55:00,92.3,77.9,30.16,WNW,300,3.0,13.0,63,0.00,,---,0.00,VWS V14.00,2013-07-17 20:55:00,
2013-07-17 17:00:00,92.4,78.0,30.15,North,355,1.0,5.0,63,0.00,,---,0.00,VWS V14.00,2013-07-17 21:00:00,
2013-07-17 17:05:00,93.0,76.1,30.15,NW,309,0.0,7.0,58,0.00,,---,0.00,VWS V14.00,2013-07-17 21:05:00,
2013-07-17 17:15:00,93.7,75.6,30.15,West,275,2.0,9.0,56,0.00,,---,0.00,VWS V14.00,2013-07-17 21:15:00,
2013-07-17 17:20:00,93.7,76.2,30.15,West,272,3.0,9.0,57,0.00,,---,0.00,VWS V14.00,2013-07-17 21:20:00,
2013-07-17 17:25:00,94.2,76.1,30.15,North,360,1.0,9.0,56,0.00,,---,0.00,VWS V14.00,2013-07-17 21:25:00,
2013-07-17 17:30:00,94.6,76.5,30.14,NW,321,0.0,6.0,56,0.00,,---,0.00,VWS V14.00,2013-07-17 21:30:00,
2013-07-17 17:35:00,94.4,76.3,30.14,West,271,2.0,6.0,56,0.00,,---,0.00,VWS V14.00,2013-07-17 21:35:00,
2013-07-17 17:40:00,94.5,76.9,30.15,WNW,287,4.0,6.0,57,0.00,,---,0.00,VWS V14.00,2013-07-17 21:40:00,
2013-07-17 17:45:00,93.6,75.6,30.14,WNW,296,2.0,6.0,56,0.00,,---,0.00,VWS V14.00,2013-07-17 21:45:00,
2013-07-17 17:50:00,92.5,75.1,30.14,WSW,256,6.0,6.0,57,0.00,,---,0.00,VWS V14.00,2013-07-17 21:50:00,
2013-07-17 17:55:00,91.4,75.1,30.14,West,268,6.0,9.0,59,0.00,,---,0.00,VWS V14.00,2013-07-17 21:55:00,
2013-07-17 18:00:00,90.7,74.9,30.13,West,267,4.0,8.0,60,0.00,,---,0.00,VWS V14.00,2013-07-17 22:00:00,
2013-07-17 18:05:00,90.3,74.5,30.14,West,268,2.0,8.0,60,0.00,,---,0.00,VWS V14.00,2013-07-17 22:05:00,
2013-07-17 18:10:00,90.0,74.8,30.14,West,279,2.0,8.0,61,0.00,,---,0.00,VWS V14.00,2013-07-17 22:10:00,
2013-07-17 18:15:00,89.5,75.2,30.14,SW,225,7.0,13.0,63,0.00,,---,0.00,VWS V14.00,2013-07-17 22:15:00,
2013-07-17 18:20:00,88.4,75.6,30.14,West,266,8.0,13.0,66,0.00,,---,0.00,VWS V14.00,2013-07-17 22:20:00,
2013-07-17 18:25:00,87.5,75.2,30.15,West,261,10.0,13.0,67,0.00,,---,0.00,VWS V14.00,2013-07-17 22:25:00,
2013-07-17 18:30:00,85.1,73.8,30.15,North,355,11.0,17.0,69,0.00,,---,0.00,VWS V14.00,2013-07-17 22:30:00,
2013-07-17 18:35:00,83.2,73.2,30.15,West,262,6.0,17.0,72,0.00,,---,0.00,VWS V14.00,2013-07-17 22:35:00,
2013-07-17 18:40:00,83.0,72.2,30.15,WSW,248,4.0,17.0,70,0.00,,---,0.00,VWS V14.00,2013-07-17 22:40:00,
2013-07-17 18:45:00,84.5,72.3,30.14,West,259,3.0,17.0,67,0.00,,---,0.00,VWS V14.00,2013-07-17 22:45:00,
2013-07-17 18:50:00,85.9,72.8,30.14,West,261,6.0,17.0,65,0.00,,---,0.00,VWS V14.00,2013-07-17 22:50:00,
2013-07-17 18:55:00,86.1,73.9,30.14,West,260,10.0,17.0,67,0.00,,---,0.00,VWS V14.00,2013-07-17 22:55:00,
2013-07-17 19:00:00,86.3,73.6,30.13,WSW,249,7.0,14.0,66,0.00,,---,0.00,VWS V14.00,2013-07-17 23:00:00,
2013-07-17 19:06:00,86.7,74.0,30.13,WSW,250,7.0,14.0,66,0.00,,---,0.00,VWS V14.00,2013-07-17 23:06:00,
2013-07-17 19:11:00,86.8,74.1,30.13,West,259,5.0,14.0,66,0.00,,---,0.00,VWS V14.00,2013-07-17 23:11:00,
2013-07-17 19:16:00,87.4,73.7,30.13,WSW,253,5.0,14.0,64,0.00,,---,0.00,VWS V14.00,2013-07-17 23:16:00,
2013-07-17 19:21:00,87.6,74.4,30.13,WSW,244,5.0,14.0,65,0.00,,---,0.00,VWS V14.00,2013-07-17 23:21:00,
2013-07-17 19:26:00,87.7,73.6,30.13,SW,220,3.0,14.0,63,0.00,,---,0.00,VWS V14.00,2013-07-17 23:26:00,
2013-07-17 19:30:00,87.7,73.6,30.13,WSW,244,1.0,14.0,63,0.00,,---,0.00,VWS V14.00,2013-07-17 23:30:00,
2013-07-17 19:31:00,87.9,73.7,30.13,SW,235,1.0,5.0,63,0.00,,---,0.00,VWS V14.00,2013-07-17 23:31:00,
2013-07-17 19:36:00,87.9,73.7,30.14,WSW,257,4.0,5.0,63,0.00,,---,0.00,VWS V14.00,2013-07-17 23:36:00,
2013-07-17 19:41:00,87.8,74.1,30.14,West,262,3.0,6.0,64,0.00,,---,0.00,VWS V14.00,2013-07-17 23:41:00,
2013-07-17 19:46:00,87.7,74.5,30.14,West,262,2.0,6.0,65,0.00,,---,0.00,VWS V14.00,2013-07-17 23:46:00,
2013-07-17 19:51:00,87.5,74.3,30.14,West,261,0.0,6.0,65,0.00,,---,0.00,VWS V14.00,2013-07-17 23:51:00,
2013-07-17 19:56:00,87.6,74.4,30.14,West,262,0.0,6.0,65,0.00,,---,0.00,VWS V14.00,2013-07-17 23:56:00,
2013-07-17 20:00:00,87.6,74.4,30.14,West,262,2.0,6.0,65,0.00,,---,0.00,VWS V14.00,2013-07-18 00:00:00,
2013-07-17 20:01:00,87.9,74.7,30.14,West,261,4.0,4.0,65,0.00,,---,0.00,VWS V14.00,2013-07-18 00:01:00,
2013-07-17 20:06:00,88.2,75.0,30.14,West,262,2.0,5.0,65,0.00,,---,0.00,VWS V14.00,2013-07-18 00:06:00,
2013-07-17 20:11:00,88.4,75.1,30.14,West,259,5.0,5.0,65,0.00,,---,0.00,VWS V14.00,2013-07-18 00:11:00,
2013-07-17 20:16:00,88.5,75.2,30.14,West,259,2.0,5.0,65,0.00,,---,0.00,VWS V14.00,2013-07-18 00:16:00,
2013-07-17 20:21:00,88.4,75.6,30.14,WSW,258,0.0,5.0,66,0.00,,---,0.00,VWS V14.00,2013-07-18 00:21:00,
2013-07-17 20:26:00,88.3,76.0,30.14,WSW,258,2.0,5.0,67,0.00,,---,0.00,VWS V14.00,2013-07-18 00:26:00,
2013-07-17 20:30:00,88.3,76.0,30.14,WSW,258,1.0,5.0,67,0.00,,---,0.00,VWS V14.00,2013-07-18 00:30:00,
2013-07-17 20:31:00,88.1,75.8,30.14,WSW,258,0.0,4.0,67,0.00,,---,0.00,VWS V14.00,2013-07-18 00:31:00,
2013-07-17 20:36:00,87.8,75.5,30.14,WSW,250,3.0,4.0,67,0.00,,---,0.00,VWS V14.00,2013-07-18 00:36:00,
2013-07-17 20:41:00,87.4,75.6,30.14,WSW,250,3.0,4.0,68,0.00,,---,0.00,VWS V14.00,2013-07-18 00:41:00,
2013-07-17 20:46:00,87.0,75.6,30.14,WSW,250,3.0,4.0,69,0.00,,---,0.00,VWS V14.00,2013-07-18 00:46:00,
2013-07-17 20:51:00,86.8,75.8,30.14,WSW,250,1.0,4.0,70,0.00,,---,0.00,VWS V14.00,2013-07-18 00:51:00,
2013-07-17 20:56:00,86.5,76.0,30.14,WSW,249,1.0,5.0,71,0.00,,---,0.00,VWS V14.00,2013-07-18 00:56:00,
2013-07-17 21:00:00,86.4,75.5,30.14,WSW,253,2.0,7.0,70,0.00,,---,0.00,VWS V14.00,2013-07-18 01:00:00,
2013-07-17 21:01:00,86.2,75.7,30.13,WSW,257,2.0,6.0,71,0.00,,---,0.00,VWS V14.00,2013-07-18 01:01:00,
2013-07-17 21:06:00,85.9,75.8,30.13,WSW,257,7.0,7.0,72,0.00,,---,0.00,VWS V14.00,2013-07-18 01:06:00,
2013-07-17 21:11:00,85.7,75.6,30.14,WSW,254,3.0,7.0,72,0.00,,---,0.00,VWS V14.00,2013-07-18 01:11:00,
2013-07-17 21:16:00,85.5,75.9,30.14,West,259,2.0,7.0,73,0.00,,---,0.00,VWS V14.00,2013-07-18 01:16:00,
2013-07-17 21:21:00,85.2,75.6,30.14,West,276,3.0,9.0,73,0.00,,---,0.00,VWS V14.00,2013-07-18 01:21:00,
2013-07-17 21:26:00,85.1,75.5,30.14,WSW,254,4.0,9.0,73,0.00,,---,0.00,VWS V14.00,2013-07-18 01:26:00,
2013-07-17 21:30:00,85.1,75.5,30.14,WSW,250,4.0,9.0,73,0.00,,---,0.00,VWS V14.00,2013-07-18 01:30:00,
2013-07-17 21:31:00,85.0,75.4,30.14,West,266,2.0,7.0,73,0.00,,---,0.00,VWS V14.00,2013-07-18 01:31:00,
2013-07-17 21:36:00,84.9,74.9,30.14,West,266,1.0,7.0,72,0.00,,---,0.00,VWS V14.00,2013-07-18 01:36:00,
2013-07-17 21:41:00,84.8,74.8,30.14,West,267,2.0,7.0,72,0.00,,---,0.00,VWS V14.00,2013-07-18 01:41:00,
2013-07-17 21:46:00,84.6,74.6,30.14,West,268,4.0,7.0,72,0.00,,---,0.00,VWS V14.00,2013-07-18 01:46:00,
2013-07-17 21:51:00,84.4,74.8,30.14,West,271,3.0,7.0,73,0.00,,---,0.00,VWS V14.00,2013-07-18 01:51:00,
2013-07-17 21:56:00,84.2,74.6,30.14,West,265,1.0,7.0,73,0.00,,---,0.00,VWS V14.00,2013-07-18 01:56:00,
2013-07-17 22:00:00,84.2,74.6,30.14,West,264,0.0,7.0,73,0.00,,---,0.00,VWS V14.00,2013-07-18 02:00:00,
2013-07-17 22:01:00,83.9,74.7,30.14,West,263,2.0,6.0,74,0.00,,---,0.00,VWS V14.00,2013-07-18 02:01:00,
2013-07-17 22:06:00,83.7,74.5,30.14,West,263,1.0,6.0,74,0.00,,---,0.00,VWS V14.00,2013-07-18 02:06:00,
2013-07-17 22:11:00,83.5,74.3,30.15,West,269,2.0,6.0,74,0.00,,---,0.00,VWS V14.00,2013-07-18 02:11:00,
2013-07-17 22:21:00,83.3,73.8,30.15,West,273,4.0,8.0,73,0.00,,---,0.00,VWS V14.00,2013-07-18 02:21:00,
2013-07-17 22:26:00,83.4,73.4,30.14,West,263,8.0,12.0,72,0.00,,---,0.00,VWS V14.00,2013-07-18 02:26:00,
2013-07-17 22:30:00,83.4,73.4,30.14,West,277,7.0,12.0,72,0.00,,---,0.00,VWS V14.00,2013-07-18 02:30:00,
2013-07-17 22:31:00,83.3,73.8,30.15,WSW,242,7.0,7.0,73,0.00,,---,0.00,VWS V14.00,2013-07-18 02:31:00,
2013-07-17 22:36:00,83.0,73.5,30.15,West,259,3.0,9.0,73,0.00,,---,0.00,VWS V14.00,2013-07-18 02:36:00,
2013-07-17 22:41:00,82.6,73.5,30.15,West,263,3.0,9.0,74,0.00,,---,0.00,VWS V14.00,2013-07-18 02:41:00,
2013-07-17 22:46:00,82.3,73.6,30.15,West,279,3.0,9.0,75,0.00,,---,0.00,VWS V14.00,2013-07-18 02:46:00,
2013-07-17 22:51:00,82.1,73.4,30.15,West,263,3.0,9.0,75,0.00,,---,0.00,VWS V14.00,2013-07-18 02:51:00,
2013-07-17 22:56:00,82.1,73.4,30.15,West,270,5.0,9.0,75,0.00,,---,0.00,VWS V14.00,2013-07-18 02:56:00,
2013-07-17 23:00:00,82.0,73.3,30.15,West,267,4.0,9.0,75,0.00,,---,0.00,VWS V14.00,2013-07-18 03:00:00,
2013-07-17 23:01:00,81.9,73.2,30.15,West,267,4.0,6.0,75,0.00,,---,0.00,VWS V14.00,2013-07-18 03:01:00,
2013-07-17 23:06:00,81.8,73.5,30.15,WSW,250,4.0,6.0,76,0.00,,---,0.00,VWS V14.00,2013-07-18 03:06:00,
2013-07-17 23:11:00,81.5,73.2,30.14,WSW,249,6.0,6.0,76,0.00,,---,0.00,VWS V14.00,2013-07-18 03:11:00,
2013-07-17 23:16:00,81.4,73.1,30.14,West,266,4.0,7.0,76,0.00,,---,0.00,VWS V14.00,2013-07-18 03:16:00,
2013-07-17 23:21:00,81.3,73.0,30.14,West,275,7.0,9.0,76,0.00,,---,0.00,VWS V14.00,2013-07-18 03:21:00,
2013-07-17 23:26:00,81.3,73.0,30.15,West,262,4.0,9.0,76,0.00,,---,0.00,VWS V14.00,2013-07-18 03:26:00,
2013-07-17 23:30:00,81.3,73.0,30.15,West,262,5.0,9.0,76,0.00,,---,0.00,VWS V14.00,2013-07-18 03:30:00,
2013-07-17 23:31:00,81.2,72.9,30.14,West,269,2.0,7.0,76,0.00,,---,0.00,VWS V14.00,2013-07-18 03:31:00,
2013-07-17 23:36:00,81.0,72.7,30.14,WNW,294,2.0,7.0,76,0.00,,---,0.00,VWS V14.00,2013-07-18 03:36:00,
2013-07-17 23:41:00,80.8,72.9,30.15,West,261,5.0,7.0,77,0.00,,---,0.00,VWS V14.00,2013-07-18 03:41:00,
2013-07-17 23:46:00,80.7,72.8,30.14,WSW,249,7.0,8.0,77,0.00,,---,0.00,VWS V14.00,2013-07-18 03:46:00,
2013-07-17 23:51:00,80.5,72.6,30.15,West,265,4.0,8.0,77,0.00,,---,0.00,VWS V14.00,2013-07-18 03:51:00,
2013-07-17 23:56:00,80.5,72.6,30.15,WSW,251,4.0,8.0,77,0.00,,---,0.00,VWS V14.00,2013-07-18 03:56:00,